Location: Bannatyne
(13.0833°N, 59.5333°W)
Time: 13:40:02
(UTC+00:00)

Transit 4A - Pass Details

Date: 24 January 2021
Orbit: 866 x 978 km, 66.8° (Epoch: 05 March)

Event Time Altitude Azimuth Distance (km) Brightness Sun altitude
Exits shadow 09:39:25 - 322° (NW) 2,723 9.9 -11.4°
Reaches altitude 10° 09:39:50 10° 320° (NW) 2,574 9.7 -11.3°
Maximum altitude 09:45:22 41° 252° (WSW) 1,262 8.3 -10.0°
Drops below altitude 10° 09:50:47 10° 183° (S) 2,516 10.4 -8.8°
Sets 09:53:22 0° 176° (S) 3,446 11.2 -8.2°
